G0UBK Weather Reports


Display with metric or nautical units.
time (UTC)temp
F
wind
direction
speed
MPH
gust
MPH
rain 1hr
in
rain 24hr
in
rain mn
in
humidity
%
barometer
mb
20260508090059 61 172 2.0 6.0 0.00 0.00 0.00 67 1017.4
20260508084553 60 180 0.0 5.0 0.00 0.00 0.00 70 1017.5
20260508083058 58 0.0 0.0 0.00 0.00 0.00 72 1017.5
20260508081608 57 223 2.0 2.0 0.00 0.00 0.00 74 1017.5
20260508080051 57 111 3.0 7.0 0.00 0.00 0.00 74 1017.3
20260508074551 56 148 2.0 8.0 0.00 0.00 0.00 76 1017.1
20260508073100 53 119 2.0 6.0 0.00 0.00 0.00 80 1017.0
20260508071607 51 113 1.0 4.0 0.00 0.00 0.00 82 1017.1
20260508070100 51 117 1.0 4.0 0.00 0.00 0.00 82 1016.8
20260508064550 50 233 1.0 5.0 0.00 0.00 0.00 83 1016.8
20260508063046 49 232 1.0 4.0 0.00 0.00 0.00 84 1016.5
20260508061547 49 155 0.0 3.0 0.00 0.00 0.00 84 1016.4
20260508060045 49 164 1.0 8.0 0.00 0.00 0.00 84 1016.2
20260508054551 49 127 2.0 8.0 0.00 0.00 0.00 84 1016.1
20260508053052 48 219 3.0 10.0 0.00 0.00 0.00 84 1016.0
20260508051550 48 153 3.0 8.0 0.00 0.00 0.00 84 1015.8
20260508050047 48 149 3.0 8.0 0.00 0.00 0.00 84 1015.7
20260508044551 48 221 3.0 9.0 0.00 0.00 0.00 84 1015.8
20260508043050 48 162 3.0 10.0 0.00 0.00 0.00 84 1015.7
20260508041548 48 132 1.0 9.0 0.00 0.00 0.00 83 1015.6
20260508040057 49 216 2.0 8.0 0.00 0.00 0.00 83 1015.7
20260508034548 49 186 3.0 10.0 0.00 0.00 0.00 83 1015.5
20260508033110 49 216 3.0 12.0 0.00 0.00 0.00 83 1015.5
20260508031552 49 248 1.0 8.0 0.00 0.00 0.00 82 1015.6
20260508030101 49 113 1.0 10.0 0.00 0.00 0.00 82 1015.5
20260508024610 49 131 2.0 10.0 0.00 0.00 0.00 82 1015.5
20260508023051 49 243 3.0 10.0 0.00 0.00 0.00 82 1015.6
20260508021545 49 135 2.0 6.0 0.00 0.00 0.00 83 1015.6
20260508020103 49 122 1.0 5.0 0.00 0.00 0.00 84 1015.6
20260508014554 49 0 1.0 5.0 0.00 0.00 0.00 84 1015.6
20260508013104 49 197 1.0 6.0 0.00 0.00 0.00 82 1015.6
20260508011547 50 243 3.0 7.0 0.00 0.00 0.00 80 1015.7
20260508010059 50 162 3.0 10.0 0.00 0.00 0.00 80 1015.5
20260508004548 50 193 4.0 13.0 0.00 0.00 0.00 80 1015.4
20260508003046 50 223 3.0 10.0 0.00 0.00 0.00 80 1015.4
20260508001556 50 121 3.0 12.0 0.00 0.00 0.00 80 1015.4
20260508000056 50 157 3.0 11.0 0.00 0.00 0.00 79 1015.6
20260507234551 50 160 2.0 11.0 0.00 0.00 0.00 79 1015.7
20260507233051 50 218 2.0 10.0 0.00 0.00 0.00 79 1015.7
20260507231548 50 241 3.0 9.0 0.00 0.00 0.00 80 1015.6
20260507230055 49 100 0.0 4.0 0.00 0.00 0.00 80 1015.7
20260507224552 49 231 0.0 6.0 0.00 0.00 0.00 79 1015.7
20260507223053 49 196 3.0 7.0 0.00 0.00 0.00 78 1015.7
20260507221548 49 157 2.0 10.0 0.00 0.00 0.00 78 1015.8
20260507220048 49 188 2.0 7.0 0.00 0.00 0.00 79 1015.8
20260507214550 49 68 2.0 8.0 0.00 0.00 0.00 78 1015.8
20260507213056 49 212 1.0 8.0 0.00 0.00 0.00 77 1015.9
20260507211554 50 98 4.0 9.0 0.00 0.00 0.00 77 1015.9
20260507210054 50 131 3.0 10.0 0.00 0.00 0.00 75 1015.9
20260507204550 50 122 3.0 8.0 0.00 0.00 0.00 76 1015.9
20260507203053 50 137 5.0 10.0 0.00 0.00 0.00 78 1015.7
20260507201555 50 130 3.0 8.0 0.00 0.00 0.00 79 1015.7
20260507200055 50 72 2.0 7.0 0.00 0.00 0.00 81 1015.7
20260507194549 50 0 2.0 5.0 0.00 0.00 0.00 81 1015.6
20260507193049 50 103 1.0 4.0 0.00 0.00 0.00 81 1015.6
20260507191556 50 122 1.0 5.0 0.00 0.00 0.00 81 1015.5
20260507190051 51 130 1.0 6.0 0.00 0.00 0.00 80 1015.4
20260507184556 51 131 2.0 6.0 0.00 0.00 0.00 78 1015.4
20260507183055 53 120 0.0 6.0 0.00 0.00 0.00 77 1015.4
20260507181546 54 0 1.0 8.0 0.00 0.00 0.00 75 1015.3
20260507180057 54 83 1.0 6.0 0.00 0.00 0.00 74 1015.3
20260507174549 54 169 1.0 6.0 0.00 0.00 0.00 75 1015.4
20260507173058 54 98 2.0 8.0 0.00 0.00 0.00 73 1015.4
20260507171552 54 94 2.0 8.0 0.00 0.00 0.00 72 1015.4
20260507170057 54 161 2.0 7.0 0.00 0.00 0.00 72 1015.4
20260507164551 54 114 2.0 10.0 0.00 0.00 0.00 74 1015.5
20260507163056 52 127 1.0 6.0 0.00 0.00 0.00 78 1015.5
20260507161557 52 173 2.0 8.0 0.00 0.00 0.00 78 1015.5
20260507160050 52 89 2.0 11.0 0.00 0.00 0.00 78 1015.5
20260507154555 53 115 1.0 7.0 0.00 0.00 0.00 75 1015.6
20260507153102 55 116 1.0 9.0 0.00 0.00 0.00 65 1015.6
20260507151552 55 115 3.0 9.0 0.00 0.00 0.00 62 1015.5
20260507150105 55 98 2.0 12.0 0.00 0.00 0.00 62 1015.6
20260507144549 56 233 3.0 8.0 0.00 0.00 0.00 62 1015.7
20260507143103 56 217 2.0 11.0 0.00 0.00 0.00 62 1015.7
20260507141557 56 237 3.0 8.0 0.00 0.00 0.00 62 1015.7
20260507140101 57 162 3.0 5.0 0.00 0.00 0.00 60 1015.8
20260507134553 57 319 2.0 8.0 0.00 0.00 0.00 60 1015.8
20260507133051 58 274 1.0 8.0 0.00 0.00 0.00 61 1015.8
20260507131551 58 118 2.0 8.0 0.00 0.00 0.00 59 1015.8
20260507124552 58 160 0.0 0.0 0.00 0.00 0.00 61 1015.7
20260507123049 56 123 9.0 0.0 0.00 0.00 0.00 60 1015.6
20260507121554 56 136 3.0 9.0 0.00 0.00 0.00 59 1015.6
20260507120056 55 160 3.0 10.0 0.00 0.00 0.00 64 1015.8
20260507114551 54 96 3.0 10.0 0.00 0.00 0.00 64 1016.0
20260507113052 53 101 5.0 10.0 0.00 0.00 0.00 65 1016.1
20260507111551 53 122 3.0 9.0 0.00 0.00 0.00 66 1016.3
20260507110059 54 138 3.0 0.0 0.00 0.00 0.00 66 1016.4
20260507104555 54 0.0 0.0 0.00 0.00 0.00 65 1016.4
20260507103115 54 0.0 0.0 0.00 0.00 0.00 66 1016.5
20260507101553 53 226 6.0 0.0 0.00 0.00 0.00 66 1016.4
20260507100107 53 103 3.0 9.0 0.00 0.00 0.00 66 1016.6
20260507094549 53 65 2.0 9.0 0.00 0.00 0.00 67 1016.5
20260507093045 52 131 4.0 12.0 0.00 0.00 0.00 68 1016.5
20260507091550 51 190 5.0 14.0 0.00 0.00 0.00 68 1016.5